Location: Beadle
(51.4667°N, 109.0000°W)
Time: 04:16:59
(UTC+00:00)

Altair - Pass Details

Date: 28 May 2022
Orbit: 1501 x 1682 km, 47.2° (Epoch: 30 June)

Event Time Altitude Azimuth Distance (km) Brightness Sun altitude
Rises 00:16:44 0° 240° (WSW) 4,843 11.0 25.3°
Reaches altitude 10° 00:19:52 10° 237° (WSW) 3,879 10.6 24.8°
Maximum altitude 00:29:35 60° 161° (SSE) 1,868 8.2 23.3°
Drops below altitude 10° 00:39:30 10° 85° (E) 3,949 9.2 21.8°
Sets 00:42:43 0° 82° (E) 4,935 9.6 21.3°
